SNIPE 4

operational
NORAD ID: 56744 Int'l Des: 2023-072 Owner: KASI Country: KR
LEOCIRCULARRETROGRADESSO

About SNIPE 4

Description loading...

Live Position

Loading 3D Globe...

Upcoming Passes

Altitude History

Altitude vs Time

uPlot chart will show altitude changes over time

Two-Line Element Set

1 56744U 23072B 25345.29251840 .00068810 00000-0 20736-2 0 9993
2 56744 97.5378 181.2710 0005153 286.9683 73.0994 15.34053443141227
Epoch: Dec 11, 2025 • Age: 6 hours

Current Status

Altitude 469.0 km
Velocity 7.63 km/s
Sub-Earth Point -10.37°S, 91.49°E
Launch Date May 25, 2023
Age 2.5 years
Type other

Technical Details

Classification Payload
Mass 10.00 kg
Dry Mass 10.00 kg
Total Mass 10.00 kg
Length 0.30 m
Diameter 0.10 m
Span 0.70 m
Shape Box+ 2 pan
Manufacturer KASI
Bus Type Cubesat 6U
Phase Status In Orbit
Owner/State KASI/KR

Large Constellations

Loading constellations...